| time (UTC) | temp C | wind direction | speed KPH | gust KPH | rain 1hr cm | rain 24hr cm | rain mn cm | humidity % | barometer mb |
| 20260510204501 | 28 | 237 | 1.6 | 6.4 | 0.00 | 0.15 | 0.03 | 72 | 1014.7 |
| 20260510204004 | 28 | 235 | 0.0 | 3.2 | 0.00 | 0.15 | 0.03 | 73 | 1014.8 |
| 20260510203100 | 28 | 235 | 0.0 | 1.6 | 0.00 | 0.15 | 0.03 | 73 | 1014.7 |
| 20260510203005 | 28 | 235 | 0.0 | 0.0 | 0.00 | 0.15 | 0.03 | 72 | 1014.9 |
| 20260510202004 | 30 | 235 | 1.6 | 6.4 | 0.00 | 0.15 | 0.03 | 67 | 1015.0 |
| 20260510201614 | 30 | 235 | 1.6 | 6.4 | 0.00 | 0.15 | 0.03 | 69 | 1014.8 |
| 20260510201005 | 30 | 233 | 1.6 | 6.4 | 0.00 | 0.15 | 0.03 | 68 | 1015.0 |
| 20260510200005 | 29 | 10 | 1.6 | 4.8 | 0.00 | 0.15 | 0.03 | 69 | 1015.1 |
| 20260510200003 | 29 | 10 | 0.0 | 4.8 | 0.00 | 0.15 | 0.03 | 69 | 1014.9 |
| 20260510195005 | 29 | 14 | 3.2 | 6.4 | 0.00 | 0.15 | 0.03 | 68 | 1015.1 |
| 20260510194600 | 29 | 9 | 3.2 | 6.4 | 0.00 | 0.15 | 0.03 | 70 | 1015.0 |
| 20260510193107 | 27 | 241 | 1.6 | 8.0 | 0.00 | 0.15 | 0.03 | 77 | 1015.1 |
| 20260510193006 | 27 | 240 | 1.6 | 8.0 | 0.00 | 0.15 | 0.03 | 78 | 1015.3 |
| 20260510193003 | 27 | 240 | 1.6 | 8.0 | 0.00 | 0.15 | 0.03 | 78 | 1015.2 |
| 20260510192005 | 27 | 255 | 1.6 | 3.2 | 0.00 | 0.15 | 0.03 | 79 | 1015.3 |
| 20260510191605 | 27 | 255 | 0.0 | 3.2 | 0.00 | 0.15 | 0.03 | 80 | 1015.2 |
| 20260510191501 | 27 | 255 | 1.6 | 4.8 | 0.00 | 0.15 | 0.03 | 79 | 1015.1 |
| 20260510191004 | 27 | 255 | 1.6 | 6.4 | 0.00 | 0.15 | 0.03 | 74 | 1015.2 |
| 20260510190006 | 28 | 196 | 1.6 | 4.8 | 0.00 | 0.15 | 0.03 | 72 | 1015.4 |
| 20260510185005 | 28 | 198 | 1.6 | 4.8 | 0.00 | 0.15 | 0.03 | 73 | 1015.5 |
| 20260510184601 | 28 | 193 | 1.6 | 8.0 | 0.00 | 0.15 | 0.03 | 74 | 1015.4 |
| 20260510184005 | 28 | 192 | 3.2 | 8.0 | 0.00 | 0.15 | 0.03 | 74 | 1015.6 |
| 20260510183101 | 27 | 109 | 1.6 | 4.8 | 0.00 | 0.15 | 0.03 | 75 | 1015.6 |
| 20260510183005 | 27 | 109 | 1.6 | 4.8 | 0.00 | 0.15 | 0.03 | 76 | 1015.8 |
| 20260510182005 | 27 | 111 | 1.6 | 4.8 | 0.00 | 0.15 | 0.03 | 76 | 1015.9 |
| 20260510181601 | 27 | 111 | 1.6 | 6.4 | 0.00 | 0.15 | 0.03 | 75 | 1015.7 |
| 20260510181501 | 27 | 111 | 1.6 | 6.4 | 0.00 | 0.15 | 0.03 | 76 | 1015.7 |
| 20260510181005 | 27 | 114 | 1.6 | 6.4 | 0.00 | 0.15 | 0.03 | 76 | 1016.0 |
| 20260510180110 | 27 | 100 | 1.6 | 6.4 | 0.00 | 0.15 | 0.03 | 76 | 1016.0 |
| 20260510180006 | 27 | 114 | 3.2 | 6.4 | 0.00 | 0.15 | 0.03 | 77 | 1016.1 |
| 20260510180002 | 27 | 114 | 3.2 | 6.4 | 0.00 | 0.15 | 0.03 | 77 | 1016.0 |
| 20260510175005 | 26 | 101 | 1.6 | 4.8 | 0.00 | 0.15 | 0.03 | 79 | 1016.3 |
| 20260510174604 | 26 | 93 | 0.0 | 9.7 | 0.00 | 0.15 | 0.03 | 80 | 1016.2 |
| 20260510174005 | 26 | 91 | 0.0 | 9.7 | 0.00 | 0.15 | 0.03 | 83 | 1016.4 |
| 20260510173107 | 25 | 119 | 0.0 | 4.8 | 0.00 | 0.15 | 0.03 | 82 | 1016.3 |
| 20260510171604 | 26 | 66 | 0.0 | 6.4 | 0.00 | 0.15 | 0.03 | 83 | 1016.4 |
| 20260510171500 | 26 | 66 | 1.6 | 6.4 | 0.00 | 0.15 | 0.03 | 83 | 1016.4 |
| 20260510171005 | 26 | 71 | 1.6 | 8.0 | 0.00 | 0.15 | 0.03 | 81 | 1016.6 |
| 20260510170100 | 25 | 266 | 0.0 | 8.0 | 0.00 | 0.15 | 0.03 | 84 | 1016.6 |
| 20260510165005 | 25 | 71 | 1.6 | 8.0 | 0.00 | 0.15 | 0.03 | 84 | 1016.9 |
| 20260510164605 | 25 | 84 | 0.0 | 9.7 | 0.00 | 0.15 | 0.03 | 85 | 1016.9 |
| 20260510164004 | 25 | 86 | 3.2 | 11.3 | 0.00 | 0.15 | 0.03 | 86 | 1017.1 |
| 20260510163100 | 24 | 71 | 3.2 | 6.4 | 0.00 | 0.15 | 0.03 | 88 | 1016.8 |
| 20260510163005 | 24 | 69 | 3.2 | 6.4 | 0.00 | 0.15 | 0.03 | 88 | 1017.0 |
| 20260510161601 | 22 | 330 | 3.2 | 6.4 | 0.00 | 0.15 | 0.03 | 93 | 1016.6 |
| 20260510161004 | 22 | 321 | 3.2 | 8.0 | 0.00 | 0.15 | 0.03 | 95 | 1016.8 |
| 20260510160006 | 22 | 59 | 3.2 | 8.0 | 0.00 | 0.15 | 0.03 | 99 | 1016.8 |
| 20260510160003 | 22 | 59 | 1.6 | 8.0 | 0.00 | 0.15 | 0.03 | 99 | 1016.6 |
| 20260510155005 | 21 | 5 | 1.6 | 3.2 | 0.00 | 0.15 | 0.03 | 100 | 1016.8 |
| 20260510154601 | 21 | 5 | 0.0 | 3.2 | 0.00 | 0.15 | 0.03 | 100 | 1016.7 |
| 20260510154005 | 21 | 360 | 1.6 | 4.8 | 0.00 | 0.15 | 0.03 | 100 | 1016.9 |
| 20260510153059 | 21 | 71 | 0.0 | 3.2 | 0.00 | 0.15 | 0.03 | 100 | 1016.8 |
| 20260510153005 | 21 | 71 | 1.6 | 3.2 | 0.00 | 0.15 | 0.03 | 100 | 1016.9 |
| 20260510152005 | 20 | 73 | 1.6 | 6.4 | 0.00 | 0.15 | 0.03 | 100 | 1016.9 |
| 20260510151608 | 20 | 71 | 0.0 | 4.8 | 0.00 | 0.15 | 0.03 | 100 | 1016.7 |
| 20260510151004 | 20 | 71 | 1.6 | 4.8 | 0.00 | 0.15 | 0.03 | 100 | 1016.8 |
| 20260510150110 | 20 | 73 | 0.0 | 4.8 | 0.00 | 0.15 | 0.03 | 100 | 1016.8 |
| 20260510150002 | 20 | 73 | 0.0 | 4.8 | 0.00 | 0.15 | 0.03 | 100 | 1016.8 |
| 20260510145005 | 20 | 75 | 1.6 | 6.4 | 0.00 | 0.15 | 0.03 | 100 | 1017.1 |
| 20260510144608 | 20 | 76 | 0.0 | 4.8 | 0.00 | 0.15 | 0.03 | 100 | 1017.1 |
| 20260510144004 | 20 | 77 | 1.6 | 4.8 | 0.00 | 0.15 | 0.03 | 100 | 1017.1 |
| 20260510143108 | 20 | 78 | 0.0 | 4.8 | 0.00 | 0.15 | 0.03 | 100 | 1017.0 |
| 20260510142004 | 20 | 77 | 1.6 | 4.8 | 0.00 | 0.15 | 0.03 | 100 | 1017.0 |
| 20260510141559 | 20 | 78 | 0.0 | 6.4 | 0.00 | 0.15 | 0.03 | 100 | 1016.8 |
| 20260510140059 | 19 | 76 | 1.6 | 4.8 | 0.00 | 0.15 | 0.03 | 100 | 1016.7 |
| 20260510140005 | 19 | 76 | 1.6 | 4.8 | 0.00 | 0.15 | 0.03 | 100 | 1016.8 |
| 20260510135004 | 18 | 76 | 1.6 | 6.4 | 0.00 | 0.15 | 0.03 | 100 | 1016.9 |
| 20260510134607 | 18 | 76 | 0.0 | 6.4 | 0.00 | 0.15 | 0.03 | 100 | 1016.8 |
| 20260510134005 | 18 | 77 | 1.6 | 6.4 | 0.00 | 0.15 | 0.03 | 100 | 1016.8 |
| 20260510133059 | 18 | 71 | 0.0 | 4.8 | 0.00 | 0.15 | 0.03 | 100 | 1016.4 |
| 20260510133005 | 18 | 71 | 1.6 | 4.8 | 0.00 | 0.15 | 0.03 | 100 | 1016.5 |
| 20260510132004 | 18 | 70 | 1.6 | 4.8 | 0.00 | 0.15 | 0.03 | 100 | 1016.7 |
| 20260510131559 | 18 | 71 | 0.0 | 6.4 | 0.00 | 0.15 | 0.03 | 100 | 1016.5 |
| 20260510130119 | 18 | 66 | 0.0 | 3.2 | 0.00 | 0.15 | 0.03 | 100 | 1016.3 |
| 20260510130004 | 18 | 66 | 0.0 | 3.2 | 0.00 | 0.15 | 0.03 | 100 | 1016.4 |
| 20260510125004 | 18 | 68 | 0.0 | 3.2 | 0.00 | 0.15 | 0.03 | 100 | 1016.4 |
| 20260510124605 | 18 | 68 | 0.0 | 3.2 | 0.00 | 0.15 | 0.03 | 100 | 1016.2 |
| 20260510124005 | 18 | 68 | 1.6 | 3.2 | 0.00 | 0.15 | 0.03 | 100 | 1016.2 |
| 20260510123100 | 17 | 68 | 0.0 | 3.2 | 0.00 | 0.15 | 0.03 | 100 | 1016.0 |
| 20260510122247 | 17 | 68 | 0.0 | 3.2 | 0.00 | 0.15 | 0.03 | 100 | 1016.0 |
| 20260510121600 | 17 | 68 | 0.0 | 1.6 | 0.00 | 0.15 | 0.03 | 100 | 1015.7 |
| 20260510121005 | 17 | 68 | 0.0 | 3.2 | 0.00 | 0.15 | 0.03 | 100 | 1015.8 |
| 20260510120059 | 17 | 68 | 0.0 | 3.2 | 0.00 | 0.15 | 0.03 | 100 | 1015.5 |
| 20260510120007 | 17 | 68 | 1.6 | 3.2 | 0.00 | 0.15 | 0.03 | 100 | 1015.6 |
| 20260510120002 | 17 | 68 | 0.0 | 3.2 | 0.00 | 0.15 | 0.03 | 100 | 1015.4 |
| 20260510115005 | 17 | 68 | 0.0 | 3.2 | 0.00 | 0.15 | 0.03 | 100 | 1015.5 |
| 20260510114600 | 17 | 68 | 0.0 | 3.2 | 0.00 | 0.15 | 0.03 | 100 | 1015.2 |
| 20260510114504 | 17 | 68 | 0.0 | 3.2 | 0.00 | 0.15 | 0.03 | 100 | 1015.2 |
| 20260510114005 | 17 | 69 | 0.0 | 3.2 | 0.00 | 0.15 | 0.03 | 100 | 1015.2 |
| 20260510113115 | 17 | 69 | 0.0 | 3.2 | 0.00 | 0.15 | 0.03 | 100 | 1014.9 |
| 20260510113005 | 17 | 69 | 0.0 | 3.2 | 0.00 | 0.15 | 0.03 | 100 | 1014.9 |
| 20260510112005 | 17 | 69 | 0.0 | 1.6 | 0.00 | 0.15 | 0.03 | 100 | 1014.9 |
| 20260510111559 | 17 | 69 | 0.0 | 3.2 | 0.00 | 0.15 | 0.03 | 100 | 1014.7 |
| 20260510111004 | 17 | 69 | 0.0 | 1.6 | 0.00 | 0.15 | 0.03 | 100 | 1014.7 |
| 20260510110005 | 17 | 68 | 0.0 | 1.6 | 0.00 | 0.15 | 0.03 | 100 | 1014.5 |
| 20260510110001 | 17 | 68 | 0.0 | 1.6 | 0.00 | 0.15 | 0.03 | 100 | 1014.4 |
| 20260510105004 | 17 | 68 | 0.0 | 1.6 | 0.00 | 0.15 | 0.03 | 100 | 1014.5 |
| 20260510104558 | 17 | 68 | 0.0 | 1.6 | 0.00 | 0.15 | 0.03 | 100 | 1014.5 |
| 20260510104004 | 17 | 68 | 0.0 | 1.6 | 0.00 | 0.15 | 0.03 | 100 | 1014.5 |
| 20260510103100 | 17 | 68 | 0.0 | 1.6 | 0.00 | 0.15 | 0.03 | 100 | 1014.2 |
| 20260510103005 | 17 | 68 | 0.0 | 1.6 | 0.00 | 0.15 | 0.03 | 100 | 1014.3 |
| 20260510102005 | 17 | 68 | 1.6 | 3.2 | 0.00 | 0.15 | 0.03 | 100 | 1014.1 |
| 20260510101602 | 17 | 68 | 0.0 | 3.2 | 0.00 | 0.15 | 0.03 | 100 | 1013.9 |
| 20260510101503 | 17 | 68 | 0.0 | 4.8 | 0.00 | 0.15 | 0.03 | 100 | 1013.9 |
| 20260510101004 | 17 | 68 | 1.6 | 4.8 | 0.00 | 0.15 | 0.03 | 100 | 1013.9 |
| 20260510100107 | 17 | 68 | 0.0 | 3.2 | 0.00 | 0.15 | 0.03 | 100 | 1013.8 |
| 20260510100006 | 17 | 68 | 0.0 | 3.2 | 0.00 | 0.15 | 0.03 | 100 | 1013.9 |
| 20260510100001 | 17 | 68 | 0.0 | 3.2 | 0.00 | 0.15 | 0.03 | 100 | 1013.8 |
| 20260510095004 | 17 | 68 | 0.0 | 3.2 | 0.00 | 0.15 | 0.03 | 100 | 1013.8 |
| 20260510094558 | 17 | 68 | 0.0 | 3.2 | 0.00 | 0.15 | 0.03 | 100 | 1013.7 |
| 20260510093100 | 17 | 68 | 0.0 | 1.6 | 0.00 | 0.15 | 0.03 | 100 | 1013.6 |
| 20260510093005 | 17 | 68 | 0.0 | 1.6 | 0.00 | 0.15 | 0.03 | 100 | 1013.8 |
| 20260510092004 | 17 | 68 | 0.0 | 1.6 | 0.00 | 0.15 | 0.03 | 100 | 1013.6 |
| 20260510091601 | 17 | 68 | 0.0 | 1.6 | 0.00 | 0.15 | 0.03 | 100 | 1013.4 |
| 20260510091005 | 17 | 68 | 1.6 | 3.2 | 0.00 | 0.15 | 0.03 | 100 | 1013.6 |
| 20260510090059 | 17 | 68 | 0.0 | 1.6 | 0.00 | 0.15 | 0.03 | 100 | 1013.2 |
| 20260510090005 | 17 | 68 | 0.0 | 1.6 | 0.00 | 0.15 | 0.03 | 100 | 1013.4 |
| 20260510090002 | 17 | 68 | 0.0 | 1.6 | 0.00 | 0.15 | 0.03 | 100 | 1013.2 |
| 20260510085005 | 17 | 68 | 0.0 | 3.2 | 0.00 | 0.15 | 0.03 | 100 | 1013.2 |
| 20260510084602 | 17 | 68 | 0.0 | 3.2 | 0.00 | 0.15 | 0.03 | 100 | 1012.9 |
| 20260510083959 | 17 | 68 | 0.0 | 3.2 | 0.00 | 0.15 | 0.03 | 100 | 1013.0 |
| 20260510083059 | 17 | 68 | 0.0 | 0.0 | 0.00 | 0.15 | 0.03 | 100 | 1012.8 |
| 20260510082958 | 17 | 68 | 0.0 | 1.6 | 0.00 | 0.15 | 0.03 | 100 | 1012.9 |
| 20260510081556 | 17 | 68 | 0.0 | 3.2 | 0.00 | 0.15 | 0.03 | 100 | 1012.8 |
| 20260510080958 | 17 | 68 | 0.0 | 3.2 | 0.00 | 0.15 | 0.03 | 100 | 1012.9 |
| 20260510080103 | 18 | 68 | 0.0 | 6.4 | 0.00 | 0.15 | 0.03 | 100 | 1012.7 |
| 20260510075000 | 18 | 68 | 1.6 | 3.2 | 0.00 | 0.15 | 0.03 | 100 | 1012.8 |
| 20260510074557 | 18 | 68 | 0.0 | 3.2 | 0.00 | 0.15 | 0.03 | 100 | 1012.6 |
| 20260510073958 | 18 | 68 | 0.0 | 3.2 | 0.00 | 0.15 | 0.03 | 100 | 1012.8 |
| 20260510073114 | 18 | 68 | 0.0 | 3.2 | 0.00 | 0.15 | 0.03 | 100 | 1012.6 |
| 20260510072959 | 18 | 68 | 0.0 | 3.2 | 0.00 | 0.15 | 0.03 | 100 | 1012.6 |
| 20260510071958 | 18 | 68 | 0.0 | 0.0 | 0.00 | 0.15 | 0.03 | 100 | 1012.9 |
| 20260510071556 | 18 | 68 | 0.0 | 0.0 | 0.00 | 0.15 | 0.03 | 100 | 1012.8 |
| 20260510070957 | 18 | 68 | 0.0 | 1.6 | 0.00 | 0.15 | 0.03 | 100 | 1013.0 |
| 20260510070100 | 18 | 68 | 0.0 | 0.0 | 0.00 | 0.15 | 0.03 | 100 | 1012.8 |
| 20260510065958 | 18 | 68 | 0.0 | 0.0 | 0.00 | 0.15 | 0.03 | 100 | 1013.0 |
| 20260510064636 | 18 | 68 | 0.0 | 1.6 | 0.00 | 0.15 | 0.03 | 100 | 1012.8 |
| 20260510063958 | 18 | 68 | 0.0 | 0.0 | 0.00 | 0.15 | 0.03 | 100 | 1012.9 |
| 20260510063056 | 18 | 68 | 0.0 | 0.0 | 0.00 | 0.15 | 0.03 | 100 | 1012.4 |
| 20260510062959 | 18 | 68 | 0.0 | 0.0 | 0.00 | 0.15 | 0.03 | 100 | 1012.5 |
| 20260510061959 | 18 | 68 | 0.0 | 4.8 | 0.00 | 0.15 | 0.03 | 100 | 1012.5 |
| 20260510061556 | 18 | 68 | 0.0 | 4.8 | 0.00 | 0.15 | 0.03 | 100 | 1012.2 |
| 20260510060959 | 18 | 68 | 0.0 | 1.6 | 0.00 | 0.15 | 0.03 | 100 | 1012.2 |
| 20260510060057 | 18 | 68 | 0.0 | 0.0 | 0.03 | 0.15 | 0.03 | 100 | 1012.5 |
| 20260510060006 | 18 | 68 | 0.0 | 0.0 | 0.03 | 0.15 | 0.03 | 100 | 1012.6 |
| 20260510055004 | 18 | 68 | 0.0 | 1.6 | 0.03 | 0.15 | 0.03 | 100 | 1012.7 |
| 20260510054605 | 18 | 68 | 0.0 | 3.2 | 0.03 | 0.15 | 0.03 | 100 | 1012.6 |
| 20260510054004 | 18 | 68 | 1.6 | 3.2 | 0.03 | 0.15 | 0.03 | 100 | 1012.8 |
| 20260510053059 | 18 | 68 | 1.6 | 3.2 | 0.03 | 0.15 | 0.03 | 100 | 1012.8 |
| 20260510052004 | 18 | 68 | 0.0 | 3.2 | 0.03 | 0.15 | 0.03 | 100 | 1013.0 |
| 20260510051604 | 18 | 68 | 0.0 | 3.2 | 0.03 | 0.15 | 0.03 | 100 | 1012.7 |
| 20260510051004 | 18 | 68 | 1.6 | 3.2 | 0.03 | 0.15 | 0.03 | 100 | 1012.8 |
| 20260510050005 | 18 | 67 | 3.2 | 9.7 | 0.00 | 0.13 | 0.13 | 100 | 1012.5 |
| 20260510045004 | 18 | 138 | 0.0 | 4.8 | 0.00 | 0.13 | 0.13 | 100 | 1013.2 |
| 20260510044607 | 18 | 138 | 0.0 | 1.6 | 0.00 | 0.13 | 0.13 | 100 | 1013.2 |
| 20260510043059 | 18 | 138 | 0.0 | 1.6 | 0.00 | 0.13 | 0.13 | 100 | 1013.6 |
| 20260510042005 | 18 | 138 | 0.0 | 3.2 | 0.00 | 0.13 | 0.13 | 100 | 1013.7 |
| 20260510041600 | 18 | 138 | 0.0 | 1.6 | 0.00 | 0.13 | 0.13 | 100 | 1013.8 |
| 20260510041004 | 18 | 138 | 0.0 | 1.6 | 0.00 | 0.13 | 0.13 | 100 | 1014.0 |
| 20260510040100 | 18 | 138 | 0.0 | 3.2 | 0.00 | 0.13 | 0.13 | 100 | 1014.1 |
| 20260510040006 | 18 | 138 | 0.0 | 3.2 | 0.00 | 0.13 | 0.13 | 100 | 1014.3 |
| 20260510040002 | 18 | 138 | 0.0 | 3.2 | 0.00 | 0.13 | 0.13 | 100 | 1014.2 |
| 20260510035006 | 18 | 139 | 1.6 | 3.2 | 0.00 | 0.13 | 0.13 | 100 | 1014.5 |
| 20260510034618 | 18 | 139 | 0.0 | 3.2 | 0.00 | 0.13 | 0.13 | 100 | 1014.4 |
| 20260510034005 | 18 | 136 | 1.6 | 3.2 | 0.00 | 0.13 | 0.13 | 100 | 1013.7 |
| 20260510033105 | 18 | 136 | 1.6 | 3.2 | 0.00 | 0.13 | 0.13 | 100 | 1013.1 |
| 20260510033006 | 18 | 136 | 1.6 | 3.2 | 0.00 | 0.13 | 0.13 | 100 | 1013.2 |
| 20260510032004 | 18 | 136 | 0.0 | 3.2 | 0.00 | 0.13 | 0.13 | 100 | 1013.4 |
| 20260510031601 | 18 | 137 | 0.0 | 3.2 | 0.00 | 0.13 | 0.13 | 100 | 1013.4 |
| 20260510031004 | 18 | 137 | 0.0 | 3.2 | 0.00 | 0.13 | 0.13 | 100 | 1013.5 |
| 20260510030109 | 18 | 137 | 0.0 | 1.6 | 0.00 | 0.13 | 0.13 | 100 | 1013.6 |
| 20260510025000 | 18 | 137 | 0.0 | 3.2 | 0.00 | 0.13 | 0.13 | 100 | 1014.0 |
| 20260510024600 | 19 | 137 | 0.0 | 3.2 | 0.00 | 0.13 | 0.13 | 100 | 1013.6 |
| 20260510023959 | 19 | 137 | 0.0 | 3.2 | 0.00 | 0.13 | 0.13 | 100 | 1013.7 |
| 20260510023058 | 19 | 137 | 0.0 | 3.2 | 0.00 | 0.13 | 0.13 | 100 | 1013.0 |
| 20260510023004 | 19 | 137 | 0.0 | 3.2 | 0.00 | 0.13 | 0.13 | 100 | 1013.1 |
| 20260510021605 | 19 | 135 | 0.0 | 1.6 | 0.00 | 0.13 | 0.13 | 100 | 1012.8 |
| 20260510021000 | 19 | 134 | 0.0 | 3.2 | 0.00 | 0.13 | 0.13 | 100 | 1012.8 |
| 20260510020058 | 19 | 135 | 0.0 | 3.2 | 0.00 | 0.13 | 0.13 | 100 | 1012.8 |
| 20260510020000 | 19 | 135 | 1.6 | 3.2 | 0.00 | 0.13 | 0.13 | 100 | 1013.0 |
| 20260510015002 | 19 | 134 | 0.0 | 3.2 | 0.00 | 0.13 | 0.13 | 100 | 1013.2 |
| 20260510014605 | 19 | 135 | 0.0 | 0.0 | 0.00 | 0.13 | 0.13 | 100 | 1013.3 |
| 20260510014004 | 19 | 135 | 0.0 | 0.0 | 0.00 | 0.13 | 0.13 | 100 | 1013.4 |
| 20260510013126 | 19 | 135 | 0.0 | 0.0 | 0.00 | 0.13 | 0.13 | 100 | 1012.9 |
| 20260510012959 | 19 | 135 | 0.0 | 0.0 | 0.00 | 0.13 | 0.13 | 100 | 1013.0 |
| 20260510012000 | 19 | 135 | 0.0 | 3.2 | 0.00 | 0.13 | 0.13 | 100 | 1012.8 |
| 20260510011558 | 19 | 135 | 0.0 | 3.2 | 0.00 | 0.13 | 0.13 | 100 | 1012.5 |
| 20260510011000 | 19 | 135 | 1.6 | 3.2 | 0.00 | 0.13 | 0.13 | 100 | 1012.8 |
| 20260510010057 | 19 | 135 | 0.0 | 3.2 | 0.00 | 0.13 | 0.13 | 100 | 1012.7 |
| 20260510010002 | 19 | 135 | 0.0 | 0.0 | 0.00 | 0.13 | 0.13 | 100 | 1012.8 |
| 20260510004959 | 19 | 135 | 0.0 | 0.0 | 0.00 | 0.13 | 0.13 | 100 | 1012.9 |
| 20260510004557 | 19 | 135 | 0.0 | 1.6 | 0.00 | 0.13 | 0.13 | 100 | 1012.9 |
| 20260510004002 | 19 | 135 | 0.0 | 3.2 | 0.00 | 0.13 | 0.13 | 100 | 1013.1 |
| 20260510003106 | 19 | 135 | 0.0 | 0.0 | 0.00 | 0.13 | 0.13 | 100 | 1013.1 |
| 20260510003005 | 19 | 135 | 0.0 | 0.0 | 0.00 | 0.13 | 0.13 | 100 | 1013.3 |
| 20260510002000 | 19 | 135 | 0.0 | 0.0 | 0.00 | 0.13 | 0.13 | 100 | 1013.4 |
| 20260510001557 | 19 | 135 | 0.0 | 0.0 | 0.00 | 0.13 | 0.13 | 100 | 1013.2 |
| 20260510001000 | 19 | 135 | 0.0 | 0.0 | 0.00 | 0.13 | 0.13 | 100 | 1013.1 |
| 20260510000126 | 19 | 134 | 0.0 | 0.0 | 0.00 | 0.13 | 0.13 | 100 | 1012.1 |
| 20260510000000 | 19 | 134 | 0.0 | 0.0 | 0.00 | 0.13 | 0.13 | 100 | 1012.2 |
| 20260509234558 | 19 | 134 | 0.0 | 3.2 | 0.03 | 0.13 | 0.13 | 100 | 1011.5 |
| 20260509234004 | 19 | 134 | 1.6 | 3.2 | 0.03 | 0.13 | 0.13 | 100 | 1011.7 |
| 20260509233058 | 19 | 133 | 0.0 | 3.2 | 0.05 | 0.13 | 0.13 | 100 | 1011.5 |
| 20260509233000 | 19 | 133 | 1.6 | 3.2 | 0.05 | 0.13 | 0.13 | 100 | 1011.7 |
| 20260509232000 | 19 | 133 | 0.0 | 3.2 | 0.08 | 0.13 | 0.13 | 100 | 1012.1 |
| 20260509231614 | 19 | 133 | 0.0 | 3.2 | 0.08 | 0.13 | 0.13 | 100 | 1012.1 |
| 20260509230108 | 19 | 133 | 1.6 | 4.8 | 0.10 | 0.13 | 0.13 | 100 | 1012.1 |
| 20260509225959 | 19 | 133 | 1.6 | 3.2 | 0.10 | 0.13 | 0.13 | 100 | 1012.3 |
| 20260509225002 | 19 | 132 | 3.2 | 4.8 | 0.08 | 0.10 | 0.10 | 100 | 1012.2 |
| 20260509224557 | 19 | 131 | 0.0 | 4.8 | 0.08 | 0.10 | 0.10 | 100 | 1011.0 |
| 20260509223110 | 19 | 130 | 0.0 | 4.8 | 0.05 | 0.08 | 0.08 | 100 | 1011.6 |
| 20260509223000 | 19 | 129 | 1.6 | 4.8 | 0.05 | 0.08 | 0.08 | 100 | 1011.6 |
| 20260509222000 | 19 | 78 | 1.6 | 4.8 | 0.03 | 0.05 | 0.05 | 100 | 1011.4 |
| 20260509221619 | 19 | 77 | 1.6 | 4.8 | 0.03 | 0.05 | 0.05 | 100 | 1011.4 |
| 20260509221001 | 19 | 77 | 1.6 | 3.2 | 0.03 | 0.05 | 0.05 | 100 | 1011.9 |
| 20260509220100 | 19 | 77 | 0.0 | 3.2 | 0.03 | 0.03 | 0.03 | 100 | 1011.9 |
| 20260509220000 | 19 | 77 | 1.6 | 3.2 | 0.03 | 0.03 | 0.03 | 100 | 1012.1 |
| 20260509215000 | 19 | 77 | 1.6 | 4.8 | 0.03 | 0.03 | 0.03 | 100 | 1012.0 |
| 20260509214604 | 19 | 76 | 1.6 | 4.8 | 0.03 | 0.03 | 0.03 | 100 | 1011.9 |
| 20260509214004 | 19 | 76 | 1.6 | 4.8 | 0.03 | 0.03 | 0.03 | 100 | 1012.0 |
| 20260509213058 | 19 | 76 | 0.0 | 6.4 | 0.03 | 0.03 | 0.03 | 100 | 1011.9 |
| 20260509213002 | 19 | 76 | 1.6 | 6.4 | 0.03 | 0.03 | 0.03 | 100 | 1012.0 |
| 20260509212000 | 19 | 76 | 3.2 | 4.8 | 0.03 | 0.03 | 0.03 | 100 | 1012.5 |
| 20260509211605 | 19 | 77 | 1.6 | 4.8 | 0.03 | 0.03 | 0.03 | 100 | 1011.8 |
| 20260509211003 | 19 | 21 | 1.6 | 3.2 | 0.03 | 0.03 | 0.03 | 100 | 1012.4 |
| 20260509210100 | 19 | 22 | 1.6 | 3.2 | 0.00 | 0.00 | 0.00 | 100 | 1011.8 |